Wind_Speed
46 46 45 44 44 42 40 39 39 39 39 40 41 42 41 40 40 41 42 44 44 43 42 41 39 38 37 36 34 33 33 35 37 40 42 43 44 45 45 45 46 47 48 48 48 48 48 48 48 48 47 46 44 44 43 39 34 30 30 34 36 35 32 34 36 38 37 32 30 31 33 33 33 34 34 33 33 33 33 33 34 34 35 34 34
45 45 44 44 43 41 39 38 38 38 38 38 38 39 39 38 38 38 39 40 40 39 38 38 37 35 35 34 33 33 33 34 36 38 41 43 45 46 47 47 47 48 49 49 49 49 49 48 48 47 46 45 44 43 41 37 32 30 31 33 34 33 32 35 38 39 40 36 32 33 34 35 35 35 35 34 33 32 32 32 31 31 33 34 34
45 44 43 43 42 40 38 37 38 38 38 38 37 37 37 37 38 37 36 36 36 35 35 35 35 33 32 32 32 32 33 34 35 37 39 41 42 44 44 45 46 46 47 47 47 47 47 47 47 46 46 44 43 41 37 33 30 29 29 30 31 32 32 34 37 38 39 38 35 34 35 36 36 37 36 35 34 33 32 31 30 30 32 33 33
44 44 43 43 41 39 38 37 37 38 38 38 38 37 37 38 38 38 38 37 37 37 36 35 34 34 33 32 31 32 33 34 36 37 39 40 42 43 43 44 44 44 44 44 44 45 45 45 45 45 44 42 40 37 33 30 29 28 29 28 29 30 31 32 34 36 39 40 40 39 38 37 38 38 38 36 35 35 34 32 31 31 32 31 30
44 44 43 42 41 39 38 38 38 38 39 39 39 39 39 39 39 39 40 40 40 40 40 39 38 37 36 35 34 34 35 36 37 38 40 41 43 44 45 45 45 44 44 44 44 44 44 44 43 42 40 38 35 33 30 28 28 28 28 28 28 28 29 29 30 32 36 38 40 42 43 42 41 40 39 38 36 35 36 35 33 33 33 32 32
45 44 43 42 41 39 39 38 38 39 39 40 40 40 40 40 40 40 41 41 42 42 42 42 41 41 41 41 40 40 40 40 41 42 43 43 44 45 46 46 46 45 45 45 44 43 43 42 40 38 37 35 32 30 28 28 28 29 28 27 27 27 26 27 27 28 30 31 35 39 42 44 44 43 42 41 37 34 33 34 32 31 32 33 34
45 44 43 42 41 40 39 39 39 39 39 40 40 40 40 40 40 40 40 41 42 43 44 44 44 45 45 45 45 45 45 45 45 46 46 46 46 46 46 46 46 46 45 45 44 43 42 40 38 36 35 32 30 29 28 28 28 29 28 27 26 25 25 25 25 25 27 28 30 33 36 39 41 42 43 43 42 38 35 34 33 31 31 32 33
45 44 43 42 40 40 39 40 40 39 39 39 38 38 39 39 40 41 41 40 41 42 43 45 46 47 48 49 50 49 49 49 48 48 49 49 48 47 47 46 46 46 45 45 43 41 40 39 37 36 34 31 30 28 27 28 29 29 28 27 25 25 24 23 23 24 24 26 27 28 30 32 33 34 36 38 41 42 42 41 39 36 35 34 34
46 45 43 42 41 39 39 39 40 39 38 36 35 34 34 36 38 40 41 42 43 44 45 46 47 47 48 49 50 49 49 49 49 49 50 49 48 47 47 45 44 44 43 42 41 40 39 38 37 35 33 32 30 29 27 27 28 28 28 27 26 25 24 23 23 23 23 24 25 26 26 27 27 27 29 30 33 36 39 42 42 42 41 38 37
46 44 43 42 41 39 39 39 38 37 35 32 30 26 26 32 35 35 38 40 42 45 46 47 48 48 48 48 48 48 47 46 46 46 46 46 46 46 45 44 43 41 40 39 39 39 39 38 37 35 33 32 30 29 28 27 27 26 26 26 26 25 24 24 23 23 24 24 24 23 22 24 25 25 25 26 27 29 32 35 37 39 40 39 38
45 44 43 42 40 39 38 38 37 35 32 28 26 25 29 36 36 34 36 38 40 42 44 46 46 46 46 46 45 45 44 43 42 41 40 40 40 40 41 41 40 40 39 39 39 39 39 38 37 35 33 31 29 28 27 27 26 25 24 25 25 26 25 25 24 24 24 24 25 23 22 22 23 23 24 24 25 27 29 32 34 36 38 38 39
43 43 43 42 40 39 38 37 35 33 30 27 27 27 31 35 37 37 38 40 40 40 40 41 42 42 42 42 41 41 40 38 37 36 35 33 33 35 36 37 37 38 39 39 40 40 39 38 37 36 34 31 28 27 27 27 27 25 24 24 24 25 26 26 26 25 25 25 26 25 23 23 22 23 23 24 25 27 29 32 35 36 38 39 39
40 41 42 42 40 39 38 37 35 32 29 28 28 27 28 31 34 36 38 39 40 40 39 39 39 40 40 39 39 39 38 37 37 36 34 32 32 33 35 35 36 36 37 39 40 41 40 39 38 37 34 31 29 28 28 28 28 27 26 25 25 25 25 26 27 27 27 26 27 26 25 24 23 23 23 24 25 26 28 33 37 38 38 39 40
38 39 40 40 39 39 38 37 35 32 29 28 27 26 27 27 27 30 35 39 41 40 39 39 40 41 40 39 39 40 40 39 39 39 38 36 34 34 35 35 35 35 36 37 39 40 40 40 39 38 36 34 32 31 30 28 27 27 26 26 26 26 26 27 28 28 28 28 28 28 27 26 25 24 23 24 25 26 28 31 37 41 40 39 40
35 36 35 34 34 36 40 39 36 32 30 28 28 27 26 23 22 27 36 42 43 42 40 40 41 41 40 39 39 40 41 42 42 42 42 41 40 39 38 37 37 37 37 37 38 38 39 40 40 40 39 38 37 35 34 31 30 29 28 28 28 28 28 28 28 29 30 30 30 29 28 28 27 26 25 25 25 26 28 30 35 41 44 42 41
31 33 31 28 26 31 40 41 36 33 31 29 29 27 24 22 22 26 37 44 43 43 44 43 43 42 41 41 42 42 42 43 43 44 45 46 45 44 43 42 41 40 39 39 39 39 39 40 41 42 42 42 42 41 39 38 36 34 34 33 33 32 31 31 31 31 32 32 32 32 30 29 29 28 27 26 26 27 28 29 32 37 43 46 45
26 29 31 33 33 34 42 42 35 32 33 31 31 28 24 24 23 26 37 46 45 44 45 44 44 44 43 44 46 46 46 46 46 47 47 47 49 49 47 46 45 44 43 41 41 41 40 40 42 44 45 46 46 45 44 43 42 41 40 39 39 37 35 33 33 34 34 34 34 34 33 32 31 30 29 28 27 27 28 29 31 33 38 43 46
24 29 35 40 43 44 48 47 38 33 34 33 31 29 27 26 27 32 42 48 48 46 45 45 45 46 46 46 47 48 48 50 51 53 51 50 51 51 50 49 48 47 47 45 43 42 42 42 43 44 46 48 49 49 48 47 46 46 46 45 45 43 40 37 34 35 35 36 36 36 36 36 35 33 32 31 30 30 29 30 31 32 34 38 42
31 38 42 46 51 53 55 54 46 38 35 35 35 34 32 30 32 38 42 45 48 49 48 48 49 49 48 48 47 48 48 50 52 54 54 52 53 53 50 50 51 52 52 51 48 45 43 43 43 45 46 47 49 50 51 51 50 50 50 50 49 48 46 42 38 37 36 36 37 37 38 38 38 37 36 35 34 33 32 32 32 33 33 35 38
39 45 47 49 54 56 57 57 53 46 41 41 42 41 37 35 38 43 43 43 47 49 50 52 53 53 53 51 50 51 49 48 50 53 53 53 54 54 53 52 53 54 54 54 52 49 46 44 44 45 46 47 48 49 51 52 52 53 53 53 52 51 49 47 44 42 40 39 38 38 39 39 40 40 40 39 38 36 36 35 35 35 34 35 36
44 48 51 52 54 56 57 57 55 52 48 47 47 45 42 41 43 46 47 47 48 49 51 53 55 57 58 57 55 54 52 51 53 54 53 51 51 52 52 52 52 53 53 54 53 52 50 49 48 48 48 49 50 51 51 52 53 53 54 54 54 54 53 51 49 47 45 43 41 40 40 41 41 41 41 41 41 41 40 39 39 38 37 37 36
48 50 52 55 57 58 58 58 57 55 53 52 50 48 47 46 46 48 49 50 50 51 52 54 55 57 59 60 59 58 58 57 56 55 52 50 49 50 51 52 53 52 52 53 54 54 54 54 54 54 54 54 54 55 55 54 54 54 55 55 55 55 54 53 52 50 47 45 44 43 42 42 42 42 42 42 43 43 43 43 42 42 41 40 40
50 51 53 56 58 59 60 59 58 57 56 54 53 52 51 50 49 49 50 51 52 53 54 55 56 57 59 60 60 61 61 60 58 55 54 53 52 53 54 55 55 54 54 54 55 56 57 57 58 59 59 58 58 57 57 56 56 56 56 57 56 55 54 53 52 50 48 46 45 44 44 43 43 42 43 44 44 44 45 45 45 45 45 45 44
51 53 54 56 58 59 60 60 60 59 57 56 56 56 55 54 53 52 52 53 54 55 56 56 56 57 58 58 58 58 59 59 59 59 58 58 57 57 58 58 57 55 55 56 57 57 57 58 60 61 61 60 58 58 57 57 57 58 58 58 57 56 52 48 46 45 45 45 45 45 45 45 44 44 44 45 46 46 45 46 46 47 47 47 47
52 54 55 57 58 59 61 61 61 60 59 59 59 58 58 57 56 55 55 55 55 56 56 56 56 56 56 56 56 56 56 57 58 59 60 60 59 57 57 56 55 54 54 55 55 55 54 55 57 59 59 58 57 57 57 57 58 59 59 58 56 52 47 40 38 38 39 41 43 45 46 47 48 47 46 45 47 48 47 47 47 47 47 48 49
54 56 57 58 60 61 61 62 62 61 61 61 61 61 60 60 59 59 58 58 57 57 57 56 56 56 55 55 55 55 55 55 56 57 57 57 55 54 54 53 53 54 54 55 54 53 52 53 55 56 57 57 57 59 59 58 58 55 50 47 44 42 39 36 37 38 39 40 41 42 45 47 49 49 49 48 48 48 49 48 48 48 48 49 50
57 58 59 60 61 62 63 63 63 63 63 63 63 63 63 62 62 61 61 60 59 58 57 57 56 56 55 55 55 55 55 55 55 55 55 55 54 53 52 52 52 53 54 54 54 52 51 53 55 56 57 58 58 59 59 59 56 48 39 35 34 36 38 41 44 44 43 43 44 44 45 46 48 49 50 51 51 51 51 50 50 50 50 51 51
59 60 61 62 63 64 65 65 65 65 65 66 66 66 65 65 64 63 62 61 60 58 57 56 56 56 55 55 55 56 56 55 55 54 54 54 53 52 52 52 52 51 51 51 53 53 53 55 57 57 57 56 55 54 54 54 54 50 44 42 41 43 47 49 49 48 47 47 47 46 46 46 46 48 49 51 52 53 54 54 54 55 55 55 56
62 63 64 65 65 66 66 67 67 67 67 68 68 68 68 67 66 64 63 62 60 59 58 57 56 56 55 55 56 56 57 56 56 55 55 55 54 53 53 52 52 51 50 50 51 53 56 58 57 56 56 54 51 50 49 50 53 55 54 52 52 52 52 52 51 50 50 50 48 48 48 47 47 48 49 50 52 53 54 55 57 58 58 59 59
66 66 67 67 67 67 68 68 68 68 69 69 69 69 69 68 66 65 64 63 61 60 59 58 57 57 56 56 56 57 58 58 58 58 58 58 57 57 55 55 54 53 54 54 54 56 59 60 58 57 56 54 53 51 49 50 53 58 59 59 59 58 57 57 55 54 53 52 51 50 50 50 50 50 50 51 52 53 54 55 56 57 57 58 59
69 69 69 70 69 69 69 69 69 70 70 70 70 70 69 69 68 67 65 64 63 62 61 61 60 59 59 58 58 58 59 60 61 61 61 61 60 60 59 58 58 57 58 58 59 59 60 61 61 60 59 58 57 56 54 53 55 59 62 63 63 63 63 62 61 59 57 56 54 52 52 52 53 53 53 53 53 53 54 55 55 55 56 57 58
71 72 72 72 71 71 71 71 71 71 71 71 71 70 70 70 70 69 67 66 65 64 63 63 62 62 61 61 61 61 61 62 62 62 62 62 62 62 61 61 61 61 61 61 61 61 62 62 63 63 62 62 61 61 60 59 59 61 64 66 66 66 67 67 66 65 64 62 59 57 55 53 53 53 54 55 55 55 55 56 55 55 55 57 58
72 73 73 72 72 72 72 72 72 72 71 71 71 70 71 71 71 70 69 68 66 66 65 65 65 65 65 65 65 64 64 64 64 64 63 63 63 63 63 62 63 63 63 63 62 61 62 63 64 65 65 65 65 65 64 64 65 66 68 69 70 70 70 70 69 69 68 67 64 61 59 57 55 53 53 54 55 55 56 57 57 57 57 58 58
71 72 72 72 72 72 72 73 73 73 72 72 71 71 71 72 72 71 70 68 67 67 66 65 65 65 66 66 67 67 66 66 66 65 65 64 63 63 64 64 65 65 65 65 65 64 64 65 67 67 68 69 69 69 69 70 71 72 72 72 72 72 72 71 71 70 69 68 66 64 62 60 59 57 55 55 55 55 56 56 57 58 59 60 60
68 69 70 70 70 71 72 73 73 73 72 71 71 71 71 71 71 70 68 67 67 65 64 64 64 64 64 65 66 66 66 66 66 67 67 66 66 65 65 65 66 66 67 67 67 68 68 68 69 70 71 72 72 73 73 73 73 73 73 72 72 72 72 72 72 71 70 68 67 65 64 62 62 61 60 59 58 57 57 57 58 58 59 60 62
65 66 68 68 68 70 71 71 71 70 68 68 68 68 68 68 67 66 65 66 65 64 62 62 62 62 63 63 64 64 63 64 64 65 66 67 67 67 67 67 67 67 68 69 69 70 70 71 71 72 73 74 74 74 74 73 72 71 71 71 71 71 72 72 72 72 71 69 68 67 65 64 64 63 63 63 62 62 61 61 61 60 61 62 63
64 65 66 66 67 68 69 69 68 66 65 64 65 65 65 65 64 63 63 63 64 63 62 61 60 61 61 61 61 62 62 62 62 63 65 66 67 67 67 67 68 69 70 71 72 72 72 73 73 74 75 75 75 74 73 72 71 70 69 69 70 70 71 71 71 71 70 69 68 67 67 66 66 66 66 66 66 66 65 65 65 65 65 65 66
63 63 64 65 66 67 68 68 67 66 64 63 64 64 64 64 64 63 63 63 63 62 62 61 60 61 61 59 59 60 59 59 60 61 63 64 65 66 67 68 69 70 71 72 73 73 73 74 74 75 75 75 74 73 72 70 69 68 68 68 69 70 70 70 71 70 70 69 69 68 68 68 68 68 68 68 68 69 69 69 70 69 69 69 69
63 63 63 64 64 65 66 67 67 67 66 65 65 65 65 65 65 65 64 64 64 64 63 61 61 61 61 60 59 59 59 58 58 59 60 62 63 63 65 66 68 69 71 72 72 72 72 73 73 73 73 73 72 70 69 68 67 67 67 68 68 69 69 69 69 69 70 70 70 70 69 70 70 70 70 70 71 71 72 73 74 74 74 74 74
66 66 66 66 66 66 66 67 67 68 68 68 67 67 66 67 67 67 67 66 66 66 66 64 63 63 63 62 61 61 60 60 59 59 60 60 61 61 62 64 65 66 68 69 69 69 69 70 70 70 70 70 69 68 67 67 67 67 67 67 67 67 67 68 68 68 69 70 70 71 72 72 72 72 73 73 73 74 75 76 77 77 77 77 78
69 69 69 69 69 69 69 70 70 70 70 70 70 70 69 69 69 69 69 69 69 69 69 69 68 68 67 67 66 65 64 63 62 62 62 62 62 62 62 62 63 65 66 67 67 67 67 68 68 68 68 68 68 67 67 67 67 66 66 66 66 66 66 67 67 68 69 70 72 73 73 74 74 75 76 76 77 77 78 79 80 80 80 80 81
72 72 72 72 72 73 73 73 73 73 73 73 73 73 72 72 72 72 73 73 72 72 72 72 72 72 72 72 72 71 69 68 66 66 66 66 65 65 64 64 63 64 66 66 66 67 67 67 67 68 68 68 68 68 68 67 67 67 66 66 65 66 66 67 68 69 70 72 73 75 75 76 77 78 78 79 80 80 81 81 81 82 82 83 83
75 75 74 74 74 75 75 76 76 76 76 76 76 76 75 75 75 76 76 76 76 76 75 75 76 76 76 76 76 76 75 74 72 71 70 70 69 68 68 68 67 66 67 68 68 68 68 68 68 68 68 69 69 69 69 69 69 68 67 67 67 67 68 68 70 71 72 74 75 77 78 78 79 80 80 80 81 81 82 83 83 83 84 84 84
78 78 78 77 77 77 78 78 79 79 78 77 77 77 76 77 78 78 79 78 79 79 79 79 79 79 79 79 79 79 79 78 77 76 74 73 73 72 72 72 71 70 70 70 71 70 70 70 70 70 70 70 71 71 71 71 71 70 70 69 69 70 70 71 72 74 75 76 78 79 80 80 81 81 81 81 82 82 83 84 84 84 84 84 83
81 81 81 80 80 80 80 81 82 82 81 81 79 78 78 78 79 79 79 79 80 80 80 80 81 81 82 83 83 82 82 81 80 79 78 77 76 75 75 75 74 73 73 73 73 73 72 72 73 73 73 73 73 73 73 73 73 72 72 72 72 73 74 74 75 77 78 79 80 80 81 81 82 82 82 83 83 84 84 84 84 83 82 81 80
83 83 83 82 81 81 81 82 83 84 84 84 83 82 81 81 81 81 81 80 80 80 80 81 81 82 83 83 84 84 84 83 82 82 81 80 79 78 77 77 76 76 76 76 75 74 74 74 75 76 76 76 75 75 76 76 75 75 75 76 76 77 77 77 78 78 79 80 81 81 81 82 83 83 84 84 84 84 83 82 81 80 78 77 76
85 85 84 84 83 83 83 83 83 84 85 84 83 83 83 83 83 83 82 82 81 80 81 81 81 81 82 83 83 84 85 84 83 82 81 81 81 80 79 78 78 78 78 78 77 76 75 76 77 78 78 77 77 77 77 77 76 77 77 78 78 78 78 78 78 79 79 80 81 81 82 83 83 84 84 84 83 81 80 78 77 75 74 73 72
87 86 86 86 85 85 84 84 84 84 84 83 82 82 82 81 82 82 82 81 80 79 80 80 81 82 83 83 84 84 85 85 85 83 82 81 81 80 79 79 79 79 79 78 78 77 77 77 78 79 79 78 78 78 77 76 77 78 78 79 79 79 78 78 78 78 79 80 81 81 82 83 83 83 82 81 79 77 75 74 72 71 70 69 67
87 87 86 86 85 85 85 84 84 83 81 80 79 78 78 77 77 78 77 77 78 78 78 78 80 82 83 84 85 85 86 86 85 84 83 82 81 80 80 79 80 80 79 79 78 78 78 78 79 79 80 79 78 78 77 76 77 78 79 79 79 79 79 78 78 78 79 79 80 81 81 81 81 80 78 76 74 73 71 69 68 66 65 64 63
84 84 84 83 82 82 82 82 82 81 79 78 77 76 75 73 71 71 71 71 73 74 74 74 76 78 80 82 84 84 85 85 84 84 83 82 81 81 80 80 80 79 78 78 78 78 78 78 79 79 79 79 79 78 77 76 77 78 79 79 78 78 78 78 77 77 77 77 77 78 78 77 76 74 73 71 70 68 67 65 64 63 61 60 59
76 77 77 76 76 75 75 75 75 75 74 74 74 73 72 70 67 66 65 65 66 68 69 70 71 72 75 77 79 80 81 81 81 81 80 80 80 80 79 79 79 78 76 76 76 76 77 78 78 77 78 78 78 77 77 77 77 77 77 77 77 76 76 75 74 74 74 74 74 73 72 71 70 68 67 66 65 64 63 61 60 59 57 56 55
Wind_Direction
272 272 272 273 274 275 276 276 275 274 272 271 271 271 271 271 271 271 271 271 271 270 270 269 268 268 270 271 273 272 270 268 265 263 261 262 264 267 269 271 273 275 277 278 280 280 282 283 286 288 291 294 296 298 299 294 285 276 269 270 276 280 277 273 274 276 277 270 257 249 250 254 255 254 254 255 257 260 260 259 257 256 255 255 256
269 270 272 273 274 275 276 276 276 276 275 274 275 275 275 274 272 272 271 271 272 273 273 273 273 272 272 273 273 274 273 272 271 270 268 268 268 269 271 273 274 276 278 280 282 283 284 286 287 289 291 293 295 296 294 288 280 273 270 270 273 274 272 270 269 272 274 271 262 254 253 256 258 256 255 255 258 260 259 257 256 255 254 254 254
270 271 272 272 273 275 276 276 276 276 276 276 276 276 274 272 271 271 270 270 271 273 275 277 278 278 277 276 275 274 273 273 273 273 272 272 271 271 272 274 275 278 280 282 284 285 287 288 289 290 292 293 293 291 287 282 279 276 273 273 273 272 269 265 263 266 270 269 264 261 258 258 258 258 257 256 259 262 259 255 254 253 253 254 255
271 271 272 272 273 274 275 274 274 274 274 274 273 272 270 269 268 269 269 268 268 269 271 272 273 274 275 274 273 272 271 270 270 270 270 271 272 273 273 274 277 279 282 283 284 286 287 288 289 290 291 290 288 285 282 280 280 279 276 275 274 273 269 264 261 262 265 265 264 263 262 260 259 258 257 256 259 262 258 254 252 252 253 256 257
269 270 271 272 273 274 274 273 272 271 270 270 271 270 269 268 268 268 269 270 270 271 271 270 269 269 269 269 267 267 267 267 267 268 269 271 273 275 277 279 280 282 283 284 284 285 286 286 287 288 287 286 284 282 281 281 282 282 279 276 276 276 274 269 264 262 262 263 263 263 261 260 259 258 257 255 257 260 257 255 255 256 256 257 258
266 268 269 271 272 273 273 272 270 269 269 269 268 268 270 271 272 272 272 271 271 271 271 271 270 268 267 267 265 265 265 265 266 268 269 271 274 277 280 282 283 283 283 284 284 284 285 285 284 283 282 281 282 283 283 283 283 283 281 279 278 279 278 275 271 267 264 263 261 260 259 257 257 256 255 253 253 255 256 255 257 259 258 257 257
265 267 269 270 272 272 272 271 270 268 267 267 268 269 271 273 275 276 275 274 272 271 270 270 269 268 267 267 266 266 266 266 267 268 270 272 274 277 280 282 283 283 283 284 284 284 284 283 281 279 278 278 281 284 286 286 286 284 282 280 280 281 281 280 277 273 269 266 263 261 259 257 257 256 256 254 251 250 251 251 253 255 255 254 255
266 268 269 270 270 270 270 270 269 268 267 268 269 272 274 276 277 276 275 273 272 271 270 269 268 268 267 267 268 268 268 268 268 269 271 273 275 276 278 280 281 282 283 283 283 283 282 280 278 277 276 277 279 283 286 288 287 284 281 279 280 281 283 282 280 276 272 270 267 264 262 260 259 258 257 256 253 249 247 248 250 251 250 250 252
267 268 269 270 269 269 269 268 268 268 268 270 272 276 280 280 277 274 273 272 272 272 271 271 271 271 271 271 272 271 271 271 271 272 273 275 276 276 276 277 278 278 279 280 279 279 278 277 276 276 276 277 278 281 283 286 286 283 279 278 279 280 282 283 281 277 274 271 268 266 265 264 261 258 256 256 254 251 247 247 248 249 250 249 249
268 270 271 271 271 270 268 267 266 266 267 268 271 270 266 264 266 269 272 274 274 273 272 272 273 274 274 275 274 274 274 274 274 274 275 275 276 276 276 276 275 275 274 273 272 273 274 275 275 276 276 277 279 280 281 283 284 283 279 276 277 279 280 281 281 279 276 273 270 268 267 264 261 258 256 255 254 252 247 243 243 246 248 247 245
269 271 272 272 271 270 268 266 265 265 265 263 260 250 242 247 255 261 267 272 274 274 273 273 274 274 274 274 274 275 275 275 275 274 274 275 276 276 276 276 274 271 269 267 266 267 270 272 273 274 275 277 278 279 280 282 283 284 282 279 277 277 278 280 280 280 278 275 273 270 266 264 264 261 258 255 253 251 246 239 236 240 243 244 244
270 272 273 272 271 269 266 265 263 262 261 258 254 247 242 245 252 258 263 268 272 274 274 273 274 273 272 273 273 274 274 274 273 271 271 271 273 275 276 275 274 272 269 266 263 263 265 268 270 271 272 274 277 279 281 283 283 283 284 284 282 279 278 278 279 280 279 276 274 272 268 266 265 264 260 257 254 251 246 237 232 235 240 241 244
269 271 271 271 270 268 266 265 263 261 258 255 253 253 251 250 255 261 267 270 271 271 271 271 271 271 270 271 272 274 275 274 273 271 269 268 270 272 273 272 273 273 271 267 264 263 263 264 266 267 268 270 273 276 279 282 283 282 282 284 284 283 280 277 276 276 277 276 274 271 269 266 265 264 262 260 256 252 247 239 232 233 237 239 242
267 268 269 269 268 266 264 262 261 260 258 257 256 256 257 260 266 272 274 273 271 269 269 270 270 269 269 270 272 274 276 276 275 273 272 270 269 272 273 272 272 273 272 270 267 265 263 262 262 262 264 266 269 271 274 277 280 281 282 284 284 284 282 279 276 274 274 274 273 271 269 267 265 264 263 261 258 254 250 242 234 232 234 237 239
264 265 269 273 272 271 268 260 257 257 257 258 258 258 261 265 269 271 273 272 271 272 272 271 272 273 273 274 274 274 275 274 273 273 272 272 270 271 272 272 274 275 275 274 272 270 266 263 261 261 262 264 266 267 269 270 273 276 279 282 284 284 283 281 279 276 274 272 271 271 270 268 265 263 262 262 260 257 253 248 240 235 234 236 238
263 266 267 262 257 265 267 260 255 255 254 254 255 257 259 261 260 263 268 268 266 268 269 268 271 273 274 275 274 274 275 274 273 272 271 271 271 270 270 271 273 276 277 277 276 274 271 267 264 262 262 263 264 266 267 267 269 272 275 279 282 284 283 281 279 278 275 273 271 270 269 269 267 264 262 262 261 260 257 254 249 243 239 238 238
258 262 257 246 239 248 257 257 254 253 253 252 251 253 254 254 253 254 258 261 261 261 262 263 267 269 269 270 271 272 274 274 274 274 273 272 270 268 268 269 270 273 275 277 277 275 273 271 268 265 264 263 264 265 266 267 268 270 273 277 280 282 282 280 280 279 277 275 272 269 268 268 267 266 264 262 261 260 259 257 254 250 246 243 242
240 241 242 243 243 246 251 253 255 255 253 250 249 255 258 254 249 244 246 255 260 261 262 265 267 268 269 270 269 270 271 272 274 274 274 272 271 268 267 267 268 270 271 273 275 273 271 269 268 266 265 264 264 265 266 268 269 270 272 274 278 280 280 278 278 278 278 277 275 272 269 267 266 265 264 264 263 261 260 259 257 254 251 248 245
228 230 234 238 243 246 248 252 259 260 255 252 255 261 263 257 253 248 246 251 257 261 264 265 266 267 269 270 269 269 270 270 270 271 271 270 270 269 267 266 267 268 270 271 272 272 270 267 266 266 266 266 266 267 268 269 270 271 272 273 275 278 278 276 277 277 276 276 275 274 272 269 267 265 264 264 263 263 262 261 259 258 255 253 250
227 229 232 236 241 244 247 253 261 264 260 257 260 264 264 261 258 256 254 253 255 259 262 263 264 265 266 267 267 267 266 265 265 268 270 270 271 271 270 268 268 268 269 270 271 271 268 266 266 267 267 268 268 268 269 270 271 272 273 273 274 276 276 274 275 276 275 273 272 273 273 271 269 267 265 263 262 262 262 262 261 260 258 256 254
234 232 234 238 241 244 249 254 260 262 261 261 262 263 264 263 262 261 260 259 258 258 259 260 261 261 262 263 263 262 261 262 263 265 268 272 273 273 273 272 270 269 270 271 272 271 268 266 267 269 270 270 269 269 269 269 271 271 272 273 274 275 275 274 273 273 272 270 269 270 271 270 269 267 266 264 263 262 262 261 261 260 259 257 255
243 241 241 244 246 248 252 256 258 259 261 263 264 265 265 265 264 264 265 265 265 264 263 263 262 261 261 261 260 259 260 263 264 264 264 267 269 271 272 272 271 271 270 270 271 272 271 270 271 272 274 273 271 270 270 271 272 273 274 274 275 275 275 274 272 271 270 267 266 267 269 269 268 267 266 265 263 262 261 261 261 261 260 259 257
249 249 249 250 252 254 255 256 258 259 261 263 264 265 265 266 266 265 266 267 267 268 268 268 267 265 263 262 261 261 261 263 263 262 261 262 264 267 269 270 270 270 270 269 269 270 271 272 273 274 274 273 272 272 272 273 274 274 274 274 274 275 275 274 273 270 268 265 265 266 267 267 266 267 267 266 264 262 261 260 260 260 260 260 259
251 252 252 254 255 257 258 258 259 260 261 262 263 264 266 267 267 266 265 265 266 267 268 268 268 267 266 265 264 263 262 262 261 261 261 262 264 266 268 269 270 271 270 270 270 270 271 272 273 272 272 272 272 272 272 273 274 274 274 274 273 272 273 274 274 272 269 266 265 265 265 265 265 267 268 266 264 262 261 260 259 259 259 260 260
254 254 254 255 256 257 259 260 261 262 263 263 264 266 267 267 267 266 265 265 265 266 266 266 265 265 264 264 263 263 262 261 261 260 262 264 265 267 268 269 270 271 271 270 270 271 272 273 272 272 272 272 272 272 271 271 272 274 274 273 271 268 267 271 276 276 274 271 268 267 266 265 265 266 267 266 263 261 260 260 260 259 259 259 259
256 256 256 256 257 257 259 260 262 263 264 265 266 266 267 267 267 267 266 266 265 265 265 264 263 262 261 261 261 261 260 260 260 260 261 263 265 266 267 268 269 270 271 272 272 272 272 272 271 272 273 273 273 273 272 272 272 273 274 272 265 258 259 269 276 278 278 274 271 270 270 269 267 265 265 264 263 260 259 259 259 259 260 260 259
259 259 259 259 260 260 260 261 262 263 263 264 265 265 266 266 266 266 266 266 265 265 264 263 262 260 259 259 259 260 260 260 260 261 262 263 264 265 267 268 269 269 270 272 272 272 272 270 269 270 272 274 274 275 276 277 276 275 274 270 260 254 262 274 278 278 278 275 272 271 273 273 271 268 265 263 261 260 259 258 258 259 260 261 262
259 259 260 260 261 261 262 262 263 263 264 264 264 264 265 265 265 265 265 265 265 264 263 262 261 260 259 259 259 259 260 260 260 261 261 262 263 264 266 267 267 268 270 271 273 273 271 268 269 271 273 274 274 274 276 278 278 276 275 273 270 270 274 280 281 280 280 278 275 275 276 275 274 273 270 267 264 262 260 260 260 260 261 262 263
259 259 260 260 261 262 263 264 265 265 265 265 265 265 265 265 265 265 265 265 264 263 262 261 260 259 259 259 259 259 260 260 259 259 260 260 261 262 263 264 265 265 267 268 269 270 269 269 270 271 271 271 270 271 273 273 274 276 278 278 280 281 282 283 284 283 282 281 279 279 279 278 277 276 274 272 269 266 264 263 262 262 263 263 263
259 259 260 260 261 262 263 263 264 265 265 265 265 266 266 266 265 265 264 264 263 262 261 260 259 259 259 258 259 259 259 259 259 258 258 259 259 260 261 261 261 262 264 264 264 265 266 268 269 269 268 267 266 267 268 268 269 274 277 280 282 284 285 286 285 284 283 282 281 281 281 281 279 277 275 273 272 271 269 267 265 264 264 264 263
258 258 259 259 259 260 260 261 262 262 263 264 264 265 265 265 265 264 264 263 262 262 261 260 259 259 258 258 258 258 258 259 259 258 258 258 258 259 259 259 259 259 261 263 263 262 263 265 266 266 265 265 265 265 265 265 266 269 273 277 280 282 284 285 285 285 284 283 281 280 280 279 278 277 276 274 272 271 270 269 268 267 266 265 264
258 258 258 259 259 259 259 260 260 261 261 262 263 264 265 265 265 265 264 263 262 262 262 261 260 259 259 258 257 257 257 257 258 258 259 259 259 259 259 259 258 258 260 262 263 262 262 262 262 263 263 264 264 264 264 264 265 266 269 273 276 279 281 282 282 282 283 282 282 280 278 277 276 275 274 274 273 272 271 270 269 267 266 266 265
260 260 260 260 260 260 260 260 260 260 261 262 262 263 264 265 265 266 266 266 265 264 263 262 262 261 260 259 258 258 257 257 257 258 258 258 259 260 260 259 259 259 259 260 262 262 261 260 260 260 261 262 263 263 264 265 267 268 269 271 273 276 278 278 278 279 279 280 280 280 279 278 277 274 272 271 271 271 271 271 270 269 267 266 265
261 261 262 262 262 262 262 262 262 262 262 262 263 263 264 265 266 266 267 267 267 266 265 264 263 262 262 261 260 259 258 257 257 257 257 257 257 258 258 259 259 259 259 260 261 261 260 260 259 260 260 261 262 262 263 265 268 270 271 271 272 274 275 276 276 276 277 278 278 279 279 279 278 277 275 272 271 269 269 269 269 269 268 268 267
263 263 263 263 263 263 263 263 263 264 264 265 265 265 266 266 267 268 269 269 268 268 267 267 266 265 264 264 262 261 260 259 258 258 257 257 256 256 256 257 258 259 260 260 260 261 261 260 260 261 262 263 263 264 265 266 268 269 270 271 272 274 274 275 276 276 277 277 278 278 277 277 277 277 277 276 274 272 270 269 267 267 266 266 266
264 264 264 264 264 264 264 265 265 266 267 267 266 267 267 267 268 268 269 269 269 268 267 266 266 265 264 264 264 263 262 261 261 260 259 259 258 257 257 258 259 260 260 261 261 261 262 262 263 263 264 265 266 267 267 268 269 270 271 271 272 272 273 273 274 275 276 276 277 277 277 277 277 277 277 277 276 275 274 273 271 269 268 266 264
263 263 264 265 265 265 266 267 267 267 267 267 267 267 267 268 268 268 268 267 267 267 266 265 264 263 262 261 261 262 262 262 261 261 261 260 260 260 259 259 260 260 260 261 261 261 262 262 263 264 264 265 266 267 268 268 269 270 270 270 271 271 271 271 272 272 273 274 275 275 276 277 277 277 277 277 277 277 276 276 275 273 272 270 268
260 260 261 262 263 264 265 266 267 268 268 267 267 267 267 268 268 267 267 266 266 265 265 264 264 264 263 262 261 261 260 260 259 259 259 259 259 258 259 259 259 259 260 260 261 261 262 262 263 264 264 265 266 267 267 268 268 268 268 269 269 269 269 269 270 271 272 272 273 274 275 276 276 277 277 277 277 277 277 277 277 276 275 273 272
259 258 259 259 260 261 262 264 265 266 267 266 266 266 266 266 267 267 267 267 267 266 265 264 264 264 264 263 263 263 262 260 259 258 257 257 256 256 256 257 257 258 259 260 261 261 262 263 263 264 265 265 266 267 267 267 267 267 267 267 267 268 268 268 268 269 270 271 272 274 275 275 276 276 276 277 277 278 278 278 278 278 277 277 275
261 260 259 259 259 259 260 260 261 262 263 263 264 264 264 264 265 265 266 266 267 267 267 267 266 265 265 264 263 262 262 262 261 260 259 258 257 257 256 257 257 258 259 260 261 261 262 263 263 264 265 266 266 267 267 267 267 267 267 267 267 267 267 267 268 268 269 270 271 273 275 276 276 277 277 277 277 278 278 278 278 278 277 277 277
264 263 262 261 261 260 259 259 259 259 260 261 261 261 262 262 263 264 264 265 265 266 267 268 268 268 267 267 265 263 262 261 261 261 261 260 259 259 258 258 259 260 261 261 262 263 263 264 264 265 266 267 267 268 268 267 267 267 266 266 266 266 266 267 267 268 268 269 271 272 274 275 276 276 277 278 278 278 278 278 278 278 278 277 277
267 266 265 264 264 263 262 261 261 260 260 260 260 260 260 261 261 262 263 263 264 264 264 265 266 267 267 268 267 267 265 264 263 262 261 261 261 260 260 260 260 260 261 262 263 264 264 265 266 266 267 268 268 268 268 268 267 267 266 266 266 266 267 267 267 268 268 269 270 272 273 274 275 276 277 277 278 278 279 279 279 278 278 277 277
270 269 268 268 267 266 266 265 264 263 262 261 260 260 260 260 260 260 260 261 262 262 263 263 263 264 264 265 265 266 266 266 265 264 263 263 262 262 261 261 260 260 260 261 262 262 263 264 265 265 266 266 267 267 267 267 267 267 267 268 268 268 268 268 268 269 269 270 271 272 273 274 275 276 276 277 278 278 278 278 278 277 277 276 276
272 272 271 271 270 270 270 269 268 267 266 265 263 262 261 261 260 260 260 260 260 261 261 262 262 263 263 263 263 264 264 265 265 264 264 263 263 262 262 262 261 260 260 260 261 261 261 262 262 263 263 264 264 265 266 266 267 268 268 268 269 269 269 269 269 270 270 271 272 273 274 275 276 276 277 277 277 277 277 277 277 277 277 277 277
271 271 271 271 270 270 269 269 270 270 269 269 268 266 265 264 263 262 261 260 260 260 260 260 261 261 262 262 263 263 263 263 264 264 264 263 263 262 262 262 262 261 261 260 260 260 261 261 261 261 262 262 263 264 265 265 266 267 268 268 269 269 269 269 270 270 271 272 273 274 275 276 277 277 278 278 277 277 277 277 278 278 278 278 278
271 271 270 270 269 269 268 268 268 268 268 268 268 268 267 267 266 265 264 263 262 262 261 261 261 261 261 262 262 263 263 263 263 263 264 264 264 263 263 262 262 262 262 262 261 261 261 261 261 262 262 262 262 263 264 265 266 267 267 268 268 268 268 269 270 271 272 273 274 275 276 276 277 277 277 277 277 278 278 278 279 279 279 279 278
272 272 272 271 271 270 270 269 268 268 268 268 268 267 267 267 266 266 266 265 264 264 263 263 263 263 263 263 263 263 263 264 263 263 263 263 263 263 263 263 263 262 262 262 262 262 262 262 262 262 262 262 263 263 264 265 265 266 266 267 267 268 268 269 270 271 272 273 274 275 275 276 276 276 276 277 277 278 278 279 279 279 278 278 277
272 273 273 273 273 273 272 271 270 270 269 268 268 267 266 266 266 266 266 266 265 264 264 263 263 263 263 263 263 263 263 263 264 264 263 263 263 262 262 262 262 261 261 261 261 261 261 261 261 262 262 263 263 263 264 264 265 265 266 266 267 268 269 269 270 271 272 272 273 274 274 274 275 275 276 277 277 278 278 278 278 278 278 278 278
272 273 273 273 273 273 273 272 272 271 271 270 270 269 268 267 266 266 266 266 266 265 264 263 263 263 263 263 263 262 262 262 263 263 263 263 262 262 262 261 260 260 260 260 260 260 260 260 260 261 262 262 262 263 263 264 264 265 265 266 266 267 268 269 269 270 271 271 272 273 273 274 274 275 276 277 277 277 277 277 277 277 277 277 278
271 271 271 271 271 272 272 272 272 273 273 273 273 272 271 270 268 267 266 266 266 265 265 264 263 262 262 262 262 262 262 262 262 262 262 262 262 262 262 261 261 260 259 259 259 259 259 259 259 260 261 262 262 263 263 263 263 264 264 265 266 267 267 268 269 270 270 271 271 272 272 273 274 274 275 275 275 276 276 277 277 277 278 278 278
270 270 270 270 271 271 271 271 272 272 272 272 272 272 272 272 271 269 267 266 265 264 264 263 262 260 260 260 260 260 260 261 261 262 262 262 262 262 261 261 261 261 260 259 259 258 258 258 259 260 261 262 263 263 264 264 264 264 265 265 266 266 267 268 269 269 270 270 271 271 271 272 273 273 273 273 274 275 276 276 277 277 278 278 279
Height
10623 10622 10623 10623 10624 10626 10628 10628 10629 10629 10628 10627 10624 10623 10621 10620 10620 10619 10618 10618 10618 10619 10620 10621 10622 10623 10624 10625 10627 10629 10630 10632 10633 10634 10635 10636 10637 10639 10640 10641 10642 10642 10642 10642 10643 10644 10645 10646 10647 10648 10647 10646 10646 10645 10645 10645 10644 10642 10641 10640 10641 10645 10643 10638 10638 10639 10640 10641 10642 10642 10643 10644 10646 10647 10649 10651 10652 10653 10655 10656 10657 10659 10660 10662 10663
10617 10617 10618 10618 10619 10621 10622 10623 10623 10623 10622 10621 10620 10619 10618 10617 10616 10615 10615 10614 10614 10615 10616 10617 10618 10620 10621 10622 10624 10625 10626 10628 10629 10630 10631 10632 10633 10634 10635 10636 10637 10637 10637 10637 10637 10638 10639 10641 10642 10643 10642 10642 10641 10640 10640 10640 10639 10638 10637 10637 10637 10641 10640 10636 10635 10636 10636 10637 10638 10639 10640 10641 10642 10643 10645 10647 10648 10650 10651 10652 10653 10654 10655 10656 10658
10612 10612 10613 10613 10614 10617 10618 10619 10618 10618 10617 10617 10616 10615 10614 10612 10612 10612 10612 10612 10612 10613 10613 10614 10615 10617 10618 10620 10622 10623 10624 10625 10626 10626 10627 10627 10628 10630 10631 10632 10633 10633 10633 10633 10633 10633 10633 10635 10636 10637 10637 10637 10636 10635 10635 10634 10634 10633 10633 10633 10633 10634 10635 10633 10631 10631 10632 10633 10634 10635 10636 10637 10638 10639 10641 10643 10645 10646 10647 10648 10650 10650 10650 10651 10653
10606 10607 10608 10609 10610 10612 10614 10614 10614 10613 10613 10612 10612 10611 10610 10609 10609 10609 10610 10611 10611 10611 10612 10612 10613 10615 10616 10618 10620 10621 10622 10622 10622 10623 10623 10623 10623 10624 10626 10628 10629 10629 10629 10629 10629 10628 10628 10629 10630 10631 10631 10632 10631 10630 10630 10629 10629 10628 10629 10630 10629 10629 10629 10629 10628 10628 10628 10628 10629 10630 10632 10633 10634 10635 10637 10639 10641 10642 10643 10644 10646 10646 10646 10648 10649
10602 10602 10603 10605 10607 10609 10609 10610 10610 10609 10609 10608 10608 10608 10607 10607 10607 10608 10608 10609 10609 10609 10610 10611 10611 10613 10614 10616 10617 10618 10619 10619 10619 10619 10619 10619 10619 10619 10621 10622 10624 10624 10624 10624 10624 10624 10624 10624 10625 10625 10626 10626 10626 10625 10625 10624 10624 10624 10624 10625 10625 10625 10624 10624 10624 10624 10624 10625 10625 10626 10627 10628 10629 10630 10632 10635 10637 10637 10638 10639 10641 10642 10643 10644 10645
10597 10598 10600 10601 10603 10605 10605 10605 10605 10605 10605 10605 10604 10605 10605 10605 10606 10607 10607 10608 10608 10607 10608 10608 10608 10609 10609 10611 10612 10613 10614 10615 10615 10615 10615 10615 10615 10615 10616 10616 10617 10619 10619 10619 10620 10620 10620 10620 10621 10621 10621 10621 10621 10620 10620 10620 10620 10619 10620 10620 10621 10620 10620 10619 10620 10619 10620 10620 10621 10621 10622 10623 10623 10625 10627 10629 10632 10633 10633 10634 10636 10637 10638 10639 10639
10593 10595 10596 10598 10600 10601 10601 10601 10600 10600 10601 10601 10601 10603 10603 10604 10605 10605 10605 10606 10605 10605 10605 10604 10604 10603 10604 10604 10606 10608 10608 10609 10610 10610 10610 10611 10612 10612 10612 10611 10611 10612 10613 10613 10614 10615 10615 10616 10616 10616 10616 10616 10616 10616 10616 10615 10615 10615 10615 10615 10615 10616 10615 10615 10615 10615 10615 10615 10616 10616 10616 10617 10618 10620 10621 10623 10626 10629 10628 10628 10630 10632 10632 10633 10634
10589 10591 10593 10594 10596 10597 10598 10597 10596 10596 10597 10598 10599 10601 10602 10602 10602 10602 10602 10601 10601 10600 10599 10598 10598 10598 10598 10598 10600 10602 10603 10604 10605 10604 10604 10605 10607 10607 10607 10607 10606 10606 10606 10607 10608 10609 10610 10610 10611 10611 10612 10612 10612 10612 10612 10611 10611 10611 10610 10610 10611 10611 10611 10611 10611 10611 10611 10611 10611 10611 10611 10612 10614 10615 10615 10616 10618 10621 10622 10623 10625 10626 10627 10629 10629
10585 10587 10589 10590 10592 10594 10594 10593 10592 10593 10594 10596 10598 10600 10600 10598 10596 10595 10595 10596 10595 10594 10593 10593 10593 10593 10593 10594 10595 10597 10598 10599 10600 10600 10599 10600 10601 10601 10601 10602 10602 10602 10602 10601 10602 10603 10604 10605 10605 10606 10606 10607 10607 10607 10607 10607 10607 10607 10606 10606 10606 10607 10607 10608 10608 10608 10608 10608 10607 10607 10608 10608 10609 10610 10611 10611 10612 10614 10616 10617 10619 10620 10622 10624 10624
10581 10583 10585 10585 10588 10590 10590 10590 10590 10591 10593 10596 10597 10597 10593 10588 10587 10589 10590 10591 10590 10589 10589 10588 10588 10589 10589 10589 10590 10591 10592 10594 10595 10595 10595 10595 10595 10594 10594 10595 10596 10597 10597 10597 10597 10598 10598 10599 10600 10601 10601 10602 10602 10603 10603 10603 10603 10603 10603 10602 10602 10603 10603 10604 10604 10604 10604 10604 10604 10604 10604 10604 10605 10606 10607 10607 10608 10609 10610 10612 10613 10614 10616 10618 10619
10578 10580 10580 10581 10583 10585 10585 10586 10587 10589 10592 10595 10594 10592 10587 10583 10585 10588 10588 10587 10586 10586 10585 10585 10585 10585 10584 10583 10583 10584 10585 10588 10589 10589 10590 10590 10589 10588 10588 10589 10590 10591 10592 10593 10593 10594 10594 10595 10595 10596 10596 10597 10597 10598 10598 10598 10598 10598 10599 10599 10599 10599 10599 10600 10600 10600 10600 10600 10600 10601 10601 10601 10601 10602 10603 10603 10604 10604 10605 10606 10608 10609 10610 10612 10613
10575 10576 10575 10576 10578 10579 10580 10581 10584 10587 10590 10591 10590 10588 10587 10586 10587 10587 10586 10585 10584 10584 10582 10581 10580 10579 10578 10577 10577 10578 10579 10581 10583 10583 10584 10585 10585 10584 10583 10583 10584 10585 10586 10588 10589 10590 10591 10591 10591 10591 10592 10592 10593 10593 10593 10593 10593 10594 10594 10594 10594 10595 10596 10596 10597 10597 10597 10597 10597 10597 10598 10598 10598 10598 10599 10599 10600 10600 10601 10602 10604 10604 10605 10606 10608
10572 10571 10570 10570 10572 10573 10575 10576 10579 10583 10585 10586 10586 10586 10587 10587 10587 10586 10585 10583 10581 10579 10578 10576 10575 10573 10572 10573 10572 10573 10574 10576 10577 10578 10579 10580 10580 10579 10579 10579 10580 10580 10581 10582 10583 10584 10586 10587 10588 10588 10588 10588 10588 10588 10588 10588 10588 10589 10590 10590 10590 10591 10592 10592 10593 10593 10594 10594 10594 10594 10594 10594 10595 10595 10595 10595 10596 10596 10597 10598 10600 10600 10601 10602 10604
10569 10567 10564 10563 10565 10566 10568 10571 10573 10577 10580 10581 10583 10584 10585 10586 10588 10586 10580 10575 10573 10572 10572 10571 10569 10568 10568 10569 10570 10570 10570 10571 10571 10572 10573 10575 10575 10575 10575 10575 10576 10576 10577 10577 10579 10580 10581 10582 10583 10583 10584 10584 10584 10584 10584 10584 10584 10585 10585 10586 10586 10587 10587 10588 10589 10590 10590 10591 10591 10591 10591 10591 10591 10592 10592 10592 10592 10592 10593 10594 10595 10596 10597 10598 10600
10565 10562 10559 10558 10559 10560 10561 10563 10567 10571 10574 10576 10578 10580 10583 10587 10589 10584 10572 10563 10564 10566 10566 10565 10563 10564 10565 10566 10566 10566 10565 10566 10566 10567 10568 10568 10570 10570 10570 10570 10571 10571 10572 10573 10574 10575 10576 10577 10577 10578 10578 10579 10579 10579 10579 10580 10580 10581 10581 10582 10582 10582 10583 10583 10584 10585 10586 10587 10587 10587 10588 10588 10588 10588 10589 10589 10589 10589 10589 10590 10591 10591 10592 10594 10596
10562 10560 10557 10555 10555 10554 10553 10555 10561 10566 10568 10571 10573 10576 10581 10585 10587 10581 10565 10554 10557 10560 10559 10559 10559 10560 10561 10561 10561 10561 10560 10561 10561 10561 10562 10562 10563 10564 10564 10565 10565 10566 10567 10568 10569 10570 10571 10571 10572 10572 10572 10573 10573 10574 10574 10575 10575 10576 10577 10577 10578 10578 10578 10578 10579 10580 10580 10581 10582 10583 10583 10584 10584 10585 10585 10585 10585 10585 10586 10586 10587 10587 10588 10589 10591
10560 10558 10554 10551 10550 10548 10546 10549 10555 10560 10562 10565 10567 10571 10577 10581 10582 10577 10560 10547 10550 10553 10552 10554 10555 10554 10556 10556 10556 10556 10556 10556 10555 10555 10556 10557 10556 10557 10559 10559 10560 10561 10562 10563 10564 10564 10565 10565 10565 10565 10566 10566 10567 10568 10569 10569 10570 10571 10571 10572 10573 10573 10574 10574 10574 10574 10575 10576 10576 10577 10578 10579 10579 10580 10580 10581 10581 10582 10582 10582 10583 10583 10584 10585 10587
10554 10553 10549 10547 10545 10542 10541 10544 10549 10554 10556 10557 10560 10564 10569 10572 10572 10564 10551 10542 10544 10547 10548 10549 10548 10548 10550 10550 10551 10551 10552 10552 10550 10548 10549 10550 10549 10551 10554 10554 10555 10556 10556 10558 10558 10558 10559 10558 10558 10558 10559 10559 10560 10561 10563 10564 10565 10566 10566 10567 10567 10568 10569 10569 10569 10569 10570 10570 10571 10572 10572 10573 10574 10574 10575 10576 10577 10578 10578 10578 10578 10579 10580 10580 10581
10545 10543 10542 10541 10539 10537 10536 10539 10543 10548 10550 10550 10552 10555 10559 10562 10558 10549 10544 10543 10542 10543 10544 10544 10543 10543 10544 10544 10545 10546 10546 10547 10545 10542 10542 10543 10542 10544 10548 10549 10549 10550 10551 10552 10553 10552 10552 10552 10552 10552 10552 10553 10554 10555 10556 10557 10558 10559 10560 10561 10562 10563 10563 10564 10564 10564 10565 10565 10566 10566 10567 10568 10568 10569 10570 10571 10572 10573 10573 10574 10574 10574 10575 10576 10577
10537 10536 10535 10534 10533 10531 10532 10533 10536 10540 10543 10543 10545 10547 10550 10552 10548 10540 10539 10541 10540 10539 10539 10538 10538 10539 10538 10538 10540 10540 10540 10540 10539 10537 10536 10537 10536 10537 10540 10543 10543 10544 10544 10545 10546 10546 10546 10545 10545 10546 10546 10548 10549 10550 10550 10551 10552 10553 10554 10555 10556 10557 10557 10558 10558 10559 10559 10560 10560 10561 10562 10562 10563 10564 10565 10566 10567 10567 10568 10569 10569 10570 10571 10571 10572
10531 10530 10529 10528 10527 10527 10527 10528 10529 10532 10534 10536 10537 10540 10542 10543 10540 10535 10534 10535 10536 10535 10534 10533 10533 10533 10532 10533 10534 10534 10534 10533 10532 10533 10532 10532 10531 10531 10532 10534 10536 10538 10539 10539 10539 10540 10540 10539 10539 10540 10541 10542 10543 10543 10544 10545 10546 10547 10547 10548 10549 10550 10550 10551 10552 10552 10553 10554 10554 10555 10556 10557 10557 10558 10559 10560 10561 10562 10563 10563 10564 10565 10566 10566 10567
10523 10524 10523 10522 10521 10522 10522 10522 10523 10525 10526 10528 10530 10532 10534 10535 10534 10532 10529 10529 10529 10529 10528 10527 10527 10526 10525 10526 10527 10528 10528 10527 10527 10528 10528 10528 10527 10526 10526 10527 10528 10531 10533 10532 10532 10532 10532 10532 10533 10534 10535 10536 10536 10537 10538 10539 10540 10541 10541 10541 10542 10543 10543 10544 10545 10545 10546 10547 10548 10549 10550 10551 10551 10552 10553 10555 10555 10556 10557 10558 10559 10559 10560 10561 10562
10515 10517 10516 10515 10515 10515 10515 10516 10517 10518 10520 10521 10523 10524 10525 10526 10527 10527 10525 10523 10522 10521 10520 10520 10520 10519 10518 10519 10520 10521 10522 10522 10521 10521 10522 10522 10522 10522 10522 10521 10522 10525 10526 10525 10525 10525 10525 10525 10525 10526 10527 10528 10529 10531 10532 10533 10534 10534 10534 10534 10535 10536 10537 10537 10538 10538 10539 10540 10541 10542 10544 10544 10545 10546 10547 10548 10549 10550 10551 10552 10552 10553 10554 10555 10556
10509 10509 10509 10508 10508 10507 10507 10508 10509 10511 10513 10514 10515 10515 10516 10518 10519 10520 10519 10518 10516 10515 10513 10513 10512 10512 10511 10512 10513 10514 10514 10515 10515 10514 10514 10515 10517 10517 10516 10515 10517 10518 10518 10517 10517 10517 10518 10518 10517 10517 10519 10521 10523 10525 10526 10527 10527 10526 10526 10527 10527 10529 10530 10531 10532 10532 10533 10534 10535 10536 10537 10538 10539 10540 10541 10542 10542 10543 10544 10545 10546 10547 10548 10548 10550
10501 10501 10501 10501 10501 10500 10500 10500 10501 10503 10505 10506 10506 10507 10507 10509 10510 10511 10512 10511 10510 10509 10507 10506 10506 10506 10506 10506 10507 10507 10507 10507 10508 10507 10507 10508 10509 10509 10509 10509 10510 10510 10509 10508 10509 10510 10511 10510 10509 10508 10510 10513 10516 10517 10519 10520 10519 10518 10518 10518 10519 10522 10524 10526 10526 10527 10528 10528 10529 10530 10530 10531 10532 10533 10533 10534 10535 10535 10536 10538 10539 10539 10541 10542 10543
10492 10492 10493 10493 10493 10493 10494 10494 10495 10497 10497 10498 10498 10498 10499 10500 10501 10502 10502 10503 10503 10502 10501 10500 10500 10500 10501 10501 10500 10500 10500 10501 10501 10501 10501 10501 10502 10502 10502 10503 10504 10502 10500 10500 10501 10504 10505 10503 10501 10501 10502 10505 10506 10507 10509 10510 10511 10512 10512 10511 10512 10515 10518 10519 10520 10521 10522 10522 10523 10523 10523 10523 10524 10525 10525 10526 10526 10527 10529 10530 10531 10532 10533 10534 10535
10484 10484 10484 10485 10485 10486 10486 10487 10488 10489 10489 10489 10489 10489 10490 10491 10492 10492 10493 10494 10494 10494 10494 10493 10493 10493 10495 10495 10495 10493 10493 10494 10494 10494 10494 10494 10494 10495 10496 10497 10497 10495 10495 10494 10495 10497 10498 10495 10494 10494 10496 10497 10498 10498 10499 10499 10501 10505 10507 10506 10508 10511 10512 10513 10514 10515 10515 10515 10516 10516 10516 10516 10516 10517 10517 10518 10519 10520 10521 10523 10524 10524 10525 10526 10527
10476 10476 10476 10476 10476 10477 10477 10478 10479 10480 10481 10481 10481 10481 10481 10482 10483 10483 10484 10485 10485 10485 10486 10486 10486 10486 10487 10488 10488 10487 10486 10487 10487 10487 10487 10487 10488 10489 10490 10490 10490 10490 10490 10489 10489 10490 10489 10487 10487 10489 10489 10490 10491 10491 10491 10490 10491 10495 10499 10501 10503 10505 10506 10507 10507 10508 10508 10507 10508 10509 10509 10509 10509 10509 10509 10510 10511 10512 10514 10515 10516 10516 10518 10519 10520
10467 10467 10467 10468 10468 10468 10469 10470 10470 10471 10471 10471 10471 10471 10471 10473 10474 10475 10475 10476 10477 10477 10477 10478 10478 10479 10480 10481 10480 10480 10479 10480 10480 10480 10480 10480 10481 10482 10483 10483 10483 10484 10484 10484 10483 10482 10479 10479 10482 10483 10483 10484 10484 10484 10485 10485 10483 10484 10488 10492 10494 10496 10497 10498 10499 10500 10500 10499 10500 10501 10501 10502 10502 10503 10502 10502 10502 10503 10505 10506 10507 10508 10509 10510 10511
10459 10459 10459 10460 10461 10461 10461 10461 10461 10461 10461 10460 10460 10460 10460 10462 10464 10465 10466 10467 10467 10468 10469 10470 10470 10471 10472 10473 10473 10473 10472 10472 10472 10473 10473 10473 10474 10475 10476 10476 10477 10478 10477 10477 10477 10476 10473 10473 10476 10477 10477 10477 10478 10478 10479 10479 10478 10477 10479 10482 10484 10486 10488 10489 10490 10491 10492 10492 10492 10493 10493 10494 10494 10495 10495 10494 10494 10495 10496 10497 10497 10499 10500 10501 10501
10450 10450 10450 10451 10452 10452 10452 10452 10452 10451 10451 10450 10450 10450 10450 10452 10453 10455 10457 10458 10458 10459 10460 10461 10462 10463 10464 10465 10465 10465 10465 10464 10464 10465 10466 10466 10467 10468 10469 10469 10470 10471 10471 10470 10469 10470 10469 10469 10469 10470 10470 10471 10471 10473 10474 10474 10473 10473 10472 10473 10475 10477 10479 10480 10481 10482 10483 10483 10484 10486 10487 10487 10486 10487 10487 10487 10487 10488 10488 10488 10489 10491 10491 10491 10491
10438 10439 10440 10441 10442 10442 10442 10442 10442 10442 10442 10441 10441 10441 10441 10441 10442 10444 10446 10449 10450 10451 10451 10452 10453 10454 10455 10456 10457 10457 10457 10457 10457 10457 10458 10459 10459 10460 10461 10462 10463 10464 10464 10463 10462 10462 10463 10463 10463 10463 10463 10464 10465 10466 10468 10469 10470 10469 10468 10468 10469 10470 10471 10472 10473 10474 10475 10475 10476 10477 10478 10479 10480 10480 10479 10479 10479 10480 10480 10480 10482 10483 10483 10483 10482
10427 10428 10430 10431 10432 10431 10431 10431 10432 10433 10433 10433 10433 10433 10432 10431 10432 10433 10436 10438 10441 10442 10443 10444 10444 10445 10446 10446 10447 10448 10449 10449 10449 10450 10451 10451 10452 10452 10453 10454 10455 10456 10456 10455 10454 10454 10454 10455 10455 10455 10456 10457 10458 10459 10461 10462 10463 10464 10464 10464 10464 10464 10465 10465 10466 10466 10467 10467 10467 10468 10469 10469 10471 10472 10473 10472 10472 10472 10472 10472 10473 10474 10474 10475 10475
10416 10418 10419 10420 10421 10421 10420 10420 10420 10422 10423 10424 10424 10424 10424 10423 10423 10424 10426 10428 10430 10431 10433 10434 10434 10435 10436 10436 10436 10438 10439 10439 10440 10441 10442 10443 10444 10444 10445 10446 10446 10447 10448 10448 10447 10446 10446 10446 10447 10447 10448 10449 10450 10452 10453 10455 10455 10456 10457 10457 10458 10457 10457 10457 10458 10458 10458 10458 10459 10459 10460 10460 10461 10462 10464 10464 10465 10465 10465 10465 10465 10465 10465 10466 10467
10408 10409 10409 10409 10410 10410 10410 10409 10410 10411 10413 10415 10415 10415 10415 10415 10415 10416 10417 10417 10418 10420 10422 10423 10423 10424 10425 10424 10424 10426 10428 10429 10429 10430 10431 10433 10434 10435 10436 10436 10437 10438 10438 10439 10438 10438 10437 10438 10438 10439 10440 10441 10442 10443 10444 10446 10447 10448 10449 10449 10449 10449 10449 10448 10447 10448 10448 10448 10449 10450 10451 10452 10452 10452 10453 10454 10455 10456 10456 10457 10457 10457 10457 10457 10457
10401 10400 10399 10399 10401 10400 10399 10399 10400 10402 10405 10406 10406 10406 10406 10406 10407 10408 10408 10407 10408 10410 10411 10411 10413 10413 10413 10413 10413 10415 10416 10417 10418 10419 10420 10421 10423 10424 10426 10427 10428 10428 10428 10428 10428 10428 10429 10430 10430 10430 10430 10431 10432 10433 10434 10436 10438 10439 10440 10441 10441 10440 10440 10439 10438 10438 10438 10439 10439 10440 10441 10442 10442 10443 10443 10444 10444 10445 10446 10446 10447 10448 10448 10448 10447
10393 10392 10391 10391 10392 10391 10390 10390 10391 10393 10395 10397 10396 10396 10397 10397 10397 10398 10399 10398 10398 10399 10400 10401 10402 10402 10402 10404 10405 10406 10407 10408 10409 10409 10409 10409 10411 10413 10415 10417 10418 10418 10418 10418 10418 10419 10420 10421 10421 10421 10421 10422 10423 10424 10426 10427 10429 10430 10431 10432 10432 10431 10431 10430 10430 10429 10430 10430 10430 10431 10431 10432 10432 10432 10433 10433 10434 10434 10435 10435 10436 10437 10437 10437 10437
10385 10385 10385 10385 10384 10383 10382 10382 10382 10384 10385 10387 10387 10387 10387 10388 10388 10388 10389 10388 10388 10389 10389 10391 10392 10392 10392 10394 10396 10397 10399 10400 10400 10400 10400 10401 10402 10404 10406 10407 10407 10407 10407 10407 10408 10409 10410 10412 10412 10412 10413 10414 10415 10416 10417 10419 10421 10422 10423 10423 10423 10422 10421 10421 10421 10421 10421 10421 10422 10422 10422 10422 10422 10422 10422 10423 10423 10423 10423 10424 10424 10425 10425 10426 10427
10377 10377 10378 10378 10377 10377 10376 10375 10375 10375 10376 10376 10377 10377 10378 10378 10378 10379 10379 10379 10379 10379 10380 10382 10384 10383 10383 10385 10387 10388 10389 10390 10390 10391 10391 10392 10393 10395 10396 10397 10397 10397 10397 10397 10398 10400 10401 10401 10402 10402 10403 10404 10406 10407 10408 10410 10411 10412 10413 10413 10413 10412 10412 10412 10412 10412 10412 10412 10412 10413 10413 10413 10413 10412 10412 10413 10413 10413 10412 10412 10412 10412 10412 10413 10414
10367 10368 10368 10369 10369 10369 10369 10368 10368 10367 10366 10367 10367 10368 10369 10369 10369 10369 10370 10370 10370 10370 10370 10372 10374 10374 10374 10375 10377 10378 10379 10380 10380 10381 10382 10383 10385 10386 10387 10388 10388 10388 10388 10388 10389 10390 10391 10391 10391 10392 10393 10394 10395 10397 10398 10400 10401 10402 10403 10403 10403 10403 10403 10403 10403 10403 10404 10404 10404 10403 10403 10403 10403 10402 10402 10403 10403 10403 10402 10401 10400 10401 10401 10401 10400
10355 10356 10357 10358 10358 10358 10359 10358 10359 10359 10358 10358 10358 10359 10360 10361 10360 10360 10361 10362 10362 10362 10362 10362 10363 10363 10363 10364 10365 10367 10369 10370 10371 10371 10372 10373 10375 10377 10378 10379 10379 10379 10379 10380 10381 10381 10381 10381 10382 10382 10383 10384 10385 10386 10387 10389 10390 10391 10392 10393 10393 10393 10394 10394 10395 10395 10395 10395 10395 10395 10394 10393 10393 10392 10392 10392 10392 10391 10390 10389 10389 10389 10389 10388 10387
10343 10344 10344 10345 10346 10346 10346 10346 10347 10348 10348 10349 10349 10350 10351 10352 10352 10351 10351 10352 10353 10354 10355 10354 10354 10353 10353 10353 10353 10354 10356 10358 10360 10361 10362 10362 10364 10366 10368 10369 10370 10370 10370 10371 10372 10372 10372 10372 10373 10373 10374 10374 10375 10375 10376 10377 10378 10380 10381 10382 10384 10384 10385 10386 10386 10386 10387 10386 10386 10385 10385 10384 10383 10383 10382 10382 10381 10380 10379 10378 10377 10377 10376 10375 10374
10330 10330 10331 10332 10333 10332 10332 10332 10333 10334 10335 10336 10338 10339 10340 10341 10342 10341 10341 10342 10342 10343 10345 10345 10345 10344 10343 10343 10343 10343 10344 10346 10348 10349 10351 10351 10353 10355 10357 10358 10360 10360 10361 10361 10362 10363 10363 10364 10365 10365 10365 10365 10366 10366 10366 10366 10367 10369 10371 10373 10374 10375 10376 10376 10376 10377 10377 10376 10376 10375 10375 10374 10374 10373 10373 10372 10371 10369 10368 10366 10365 10364 10363 10362 10361
10317 10318 10318 10319 10320 10320 10319 10318 10317 10318 10320 10321 10324 10326 10328 10329 10329 10328 10329 10331 10331 10332 10333 10334 10334 10333 10333 10332 10332 10333 10333 10334 10335 10337 10339 10340 10342 10343 10345 10346 10348 10350 10351 10351 10352 10353 10354 10355 10355 10356 10356 10356 10356 10357 10357 10358 10358 10360 10362 10363 10365 10365 10366 10366 10366 10366 10366 10365 10365 10364 10364 10363 10363 10362 10362 10361 10360 10358 10356 10354 10352 10351 10351 10350 10350
10306 10306 10306 10306 10307 10308 10307 10306 10305 10304 10304 10306 10308 10310 10313 10314 10313 10313 10315 10317 10318 10319 10321 10322 10322 10322 10321 10321 10321 10322 10322 10323 10324 10325 10327 10328 10330 10332 10333 10334 10336 10338 10339 10340 10341 10343 10344 10345 10345 10345 10346 10347 10348 10349 10349 10349 10350 10352 10353 10354 10354 10355 10355 10355 10355 10355 10355 10355 10354 10354 10353 10353 10352 10351 10350 10348 10347 10345 10344 10343 10341 10340 10340 10340 10339
10293 10293 10293 10293 10294 10295 10296 10295 10294 10292 10291 10292 10293 10295 10297 10298 10298 10298 10300 10302 10304 10305 10307 10309 10310 10310 10309 10309 10310 10310 10310 10311 10313 10314 10316 10316 10318 10320 10322 10323 10324 10326 10327 10328 10330 10332 10334 10335 10334 10334 10335 10337 10339 10340 10340 10340 10343 10344 10344 10344 10344 10344 10345 10345 10345 10345 10345 10345 10344 10344 10343 10342 10341 10340 10338 10336 10335 10333 10333 10332 10331 10331 10330 10329 10328
10278 10278 10278 10278 10280 10281 10281 10282 10282 10280 10278 10279 10281 10281 10282 10283 10283 10283 10284 10286 10289 10292 10293 10294 10296 10296 10297 10297 10297 10297 10296 10297 10299 10302 10304 10305 10306 10307 10309 10311 10313 10313 10314 10316 10318 10321 10323 10323 10323 10323 10324 10327 10329 10330 10330 10332 10334 10334 10333 10333 10333 10334 10335 10336 10336 10336 10336 10335 10335 10334 10333 10331 10329 10328 10326 10325 10324 10324 10323 10323 10322 10320 10319 10318 10317
10264 10264 10264 10264 10265 10265 10265 10266 10266 10265 10264 10265 10266 10267 10268 10269 10270 10270 10270 10272 10275 10277 10280 10281 10281 10281 10282 10282 10283 10283 10283 10283 10285 10287 10290 10291 10293 10295 10297 10299 10299 10300 10302 10303 10306 10308 10310 10311 10311 10311 10313 10316 10317 10319 10321 10324 10324 10323 10322 10323 10323 10324 10325 10326 10326 10327 10327 10326 10325 10324 10322 10320 10318 10317 10316 10315 10315 10315 10314 10313 10311 10310 10309 10308 10307
10252 10252 10252 10252 10251 10251 10250 10249 10249 10248 10248 10250 10251 10252 10253 10255 10257 10258 10259 10260 10262 10262 10265 10268 10268 10268 10268 10268 10268 10268 10269 10270 10272 10274 10275 10277 10279 10280 10283 10284 10285 10287 10289 10291 10293 10295 10296 10298 10299 10300 10301 10303 10305 10308 10311 10313 10312 10311 10311 10312 10313 10314 10314 10315 10316 10317 10317 10316 10315 10313 10312 10310 10308 10307 10307 10307 10306 10305 10304 10303 10302 10301 10300 10299 10298
10241 10240 10239 10239 10238 10238 10238 10237 10236 10235 10235 10236 10236 10236 10237 10240 10242 10245 10246 10248 10249 10249 10250 10253 10254 10255 10254 10253 10253 10254 10255 10256 10259 10261 10262 10264 10266 10266 10268 10269 10270 10272 10275 10278 10280 10282 10284 10286 10287 10288 10290 10292 10294 10296 10299 10300 10300 10300 10300 10301 10302 10303 10304 10305 10306 10307 10306 10305 10304 10303 10301 10300 10299 10299 10299 10298 10296 10295 10294 10294 10293 10292 10291 10290 10290
10229 10228 10227 10227 10226 10227 10227 10226 10225 10224 10224 10224 10224 10223 10223 10224 10227 10229 10232 10235 10236 10236 10236 10237 10238 10239 10239 10239 10239 10240 10242 10243 10246 10248 10249 10252 10253 10253 10255 10256 10256 10258 10261 10264 10268 10270 10272 10273 10276 10279 10281 10282 10283 10285 10287 10288 10288 10289 10289 10290 10292 10293 10294 10295 10296 10296 10295 10295 10294 10292 10291 10291 10291 10290 10289 10288 10288 10287 10286 10285 10284 10284 10284 10283 10282